Theta_e
350 352 351 350 352 354 356 358 358 359 359 359 357 357 357 356 355 355 355 355 356 357 357 357 358 357 355 354 355 356 358 357 358 359 359 359 360 360 362 365 364 360 360 359 359 359 359 360 358 358 357 356 355 353 350 348 349 349 349 349 350 351 352 354 356 358 358 355 353 351 349 350 349 348 349 349 349 350 351 352 352 349 348 347 346
349 351 350 350 351 351 352 354 356 356 358 358 358 358 357 357 356 356 355 355 356 357 356 357 358 358 357 357 357 359 361 361 360 360 360 360 361 359 359 363 362 359 360 361 361 358 359 360 359 358 357 356 355 354 350 349 348 348 348 349 350 352 352 354 355 358 358 357 356 355 353 352 351 351 352 352 352 352 353 353 351 346 345 346 345
348 350 350 351 351 350 350 351 353 354 355 356 356 356 356 357 357 356 356 356 355 356 356 355 357 359 358 360 361 361 363 362 359 359 362 363 363 361 358 360 361 360 360 361 360 359 359 359 358 356 354 354 355 354 352 351 350 350 350 350 351 351 351 352 355 357 358 358 357 355 353 354 354 353 353 352 352 352 353 351 349 345 345 346 344
348 350 351 351 350 350 350 349 350 351 351 353 354 354 355 356 357 357 356 355 355 356 356 355 358 360 359 362 363 362 363 362 359 359 362 363 363 362 360 361 361 362 362 362 361 360 360 360 358 356 354 354 355 356 354 353 352 354 354 354 354 354 354 354 356 358 359 359 359 358 357 357 356 355 354 353 352 351 351 350 350 348 348 348 345
349 351 352 352 350 350 350 348 347 348 348 349 350 352 353 354 355 356 355 354 354 355 355 356 359 360 359 360 362 362 362 361 361 360 359 360 361 361 361 361 360 360 361 361 361 361 361 360 359 357 355 355 355 355 355 357 358 357 355 356 358 358 358 358 358 358 358 360 361 360 359 358 357 356 356 355 353 352 351 352 353 352 351 350 349
351 354 353 353 351 350 349 348 346 346 345 345 345 347 349 351 353 354 353 353 353 353 354 356 358 360 359 359 360 362 363 361 362 361 358 358 359 360 360 360 360 360 360 359 359 358 358 358 358 357 357 356 356 356 356 359 360 357 356 358 359 358 358 359 359 360 361 361 360 359 358 357 356 356 357 356 355 355 357 357 355 353 353 353 353
355 359 357 354 352 351 350 349 347 345 345 344 343 344 345 347 349 351 351 351 352 352 354 354 356 358 360 360 359 360 362 362 362 362 360 358 358 359 359 358 358 359 358 357 357 356 356 357 357 357 357 357 357 357 357 359 358 358 359 361 361 361 361 359 359 359 360 360 358 356 355 355 355 355 355 356 357 358 358 356 352 350 352 353 354
361 364 362 357 355 353 352 351 350 347 345 345 344 344 344 344 345 346 347 348 349 350 352 353 354 355 357 358 357 358 360 361 362 363 362 359 358 358 357 357 357 357 357 356 355 354 354 354 355 356 356 357 358 357 357 358 359 360 361 360 360 361 361 359 359 360 360 358 357 355 355 355 356 355 354 354 354 354 352 349 347 348 350 351 351
364 365 364 361 359 356 353 352 352 349 347 346 346 346 345 344 344 345 345 346 346 348 348 350 351 352 354 356 355 355 356 357 359 360 360 361 360 357 356 355 355 356 356 356 355 354 353 353 352 352 354 356 358 358 356 355 356 356 357 358 359 359 359 359 360 360 359 358 356 355 355 354 352 351 350 350 348 348 346 345 345 347 348 349 351
365 365 363 362 362 361 358 355 354 353 351 350 350 350 348 347 346 346 346 346 345 346 348 347 348 350 352 354 354 354 354 354 354 356 358 359 359 356 354 354 354 355 357 357 355 354 353 352 351 351 352 354 355 355 351 349 349 350 352 356 357 358 359 360 359 358 357 356 355 353 351 349 346 345 346 345 343 343 344 345 347 350 351 354 355
364 365 364 362 362 364 363 360 358 357 356 353 354 355 352 350 349 349 349 349 349 350 349 349 348 349 351 352 353 353 353 352 352 354 356 357 357 355 353 353 354 355 355 354 355 353 351 350 350 350 352 352 354 354 351 349 349 349 349 350 351 353 355 356 357 358 356 355 354 351 349 347 346 347 346 343 342 345 349 352 354 356 356 358 359
360 362 364 363 363 365 366 365 364 363 362 360 359 360 360 360 359 358 356 355 354 353 352 352 352 350 349 350 350 351 352 351 351 353 355 356 355 353 352 352 353 352 351 351 352 352 351 350 349 348 350 351 352 354 354 352 353 352 351 350 349 349 350 351 353 355 355 356 354 352 351 351 351 351 349 347 350 354 357 359 359 360 360 359 359
357 359 361 361 363 365 365 365 365 364 365 364 363 364 367 368 366 363 361 360 357 356 354 354 354 352 350 347 348 352 352 352 353 353 354 354 353 351 351 351 351 350 349 349 351 351 351 352 352 350 349 350 351 353 354 354 357 358 358 356 354 352 350 350 350 350 352 355 356 355 355 354 354 355 354 355 358 359 360 361 360 359 360 360 360
355 357 358 358 360 361 360 358 357 357 359 360 362 364 365 365 364 363 363 361 360 358 357 354 354 354 352 348 352 355 355 354 353 353 352 352 350 348 349 350 349 347 347 348 349 350 352 353 354 353 352 354 356 356 357 359 362 364 363 361 360 358 356 354 353 353 353 354 355 356 356 355 356 356 356 357 359 360 360 361 360 359 359 359 358
354 355 356 356 356 358 356 352 351 353 356 357 360 361 359 360 361 362 362 361 360 360 358 355 355 355 353 351 353 353 353 353 353 351 349 349 348 347 348 350 349 345 345 347 350 353 356 356 355 355 356 358 360 360 360 361 361 361 361 361 360 358 356 354 355 355 356 356 355 356 356 355 355 355 354 354 355 356 357 357 358 357 357 357 357
354 355 356 355 355 355 355 353 352 353 354 355 356 357 357 357 357 357 358 359 360 361 359 358 357 356 356 356 352 348 349 351 351 350 349 349 348 348 350 353 353 349 348 352 353 354 355 356 356 357 357 358 359 360 360 358 356 357 359 361 359 356 354 353 352 353 353 354 354 355 354 354 354 354 353 353 355 356 356 355 356 356 354 355 356
353 354 354 353 352 352 352 353 353 352 353 353 354 354 355 354 354 354 354 355 356 358 356 354 353 352 353 354 350 345 346 349 349 349 349 349 349 351 355 358 358 356 356 355 353 352 353 355 356 356 356 357 357 357 357 354 353 356 359 360 359 359 357 355 354 354 355 354 354 355 355 356 357 356 355 355 356 358 357 355 356 356 354 355 355
350 351 351 350 350 350 350 352 352 352 353 352 351 352 352 352 351 352 352 352 353 353 350 348 348 347 347 347 344 340 341 344 345 347 348 348 348 351 354 356 356 357 358 356 353 351 353 355 355 354 353 353 353 353 353 352 352 355 357 357 357 358 357 356 356 357 357 357 357 356 356 356 357 356 356 356 357 357 356 354 354 354 354 355 355
348 348 348 348 348 349 349 350 350 349 349 349 349 349 349 349 348 348 349 350 350 348 345 343 343 343 342 341 338 336 335 337 339 342 344 346 348 350 353 355 355 356 357 353 349 350 352 351 349 349 350 350 350 351 350 350 350 351 353 355 355 356 355 354 354 355 355 356 356 356 355 355 356 356 356 356 354 353 353 353 353 352 353 354 354
346 346 346 346 346 346 347 347 346 346 345 346 346 346 345 345 345 345 346 346 345 344 343 342 341 341 340 338 336 334 334 334 334 336 338 341 345 348 350 350 351 352 351 348 346 348 350 348 344 343 343 343 344 345 344 345 345 347 350 352 353 352 351 349 351 351 352 353 355 355 354 353 354 355 355 354 352 351 353 353 352 352 352 352 352
343 344 344 344 344 345 345 344 344 343 342 342 342 342 341 341 341 341 342 342 341 340 339 339 338 337 336 335 334 332 332 332 332 333 334 335 338 341 342 343 345 346 345 343 343 344 344 343 341 339 336 336 336 337 338 339 340 342 346 347 347 347 346 346 348 350 351 353 353 353 353 352 351 352 353 353 352 352 353 353 352 351 351 351 352
341 341 341 342 342 343 342 342 341 340 340 339 339 338 338 337 337 337 337 337 337 336 336 335 333 331 331 330 330 330 329 329 329 329 329 330 331 333 335 337 340 343 342 340 340 340 340 339 338 334 331 332 335 336 336 337 338 339 341 341 342 343 343 344 348 350 351 352 351 351 351 350 350 351 350 350 351 351 351 350 350 351 350 349 351
339 338 338 337 337 338 339 339 339 338 337 337 336 336 336 335 334 334 334 334 333 333 334 333 331 329 328 327 326 326 326 326 326 325 325 325 326 327 328 329 333 337 338 337 336 335 335 333 330 326 325 331 335 336 336 337 337 337 337 338 340 342 343 345 347 348 349 349 348 348 348 348 348 348 348 348 348 348 348 348 348 350 349 348 349
337 337 336 335 334 334 334 335 335 335 335 335 334 334 334 334 334 334 334 334 333 332 333 333 332 331 330 329 327 327 326 325 324 324 323 323 323 323 323 324 327 331 332 331 330 327 324 322 321 319 321 328 333 336 337 335 332 331 333 337 340 342 342 343 343 344 345 346 345 344 344 344 345 344 344 345 345 345 345 345 345 346 345 346 347
335 335 335 335 333 332 331 331 332 332 333 333 333 334 333 333 333 333 333 333 334 333 333 332 332 332 331 330 329 328 327 326 325 325 325 324 323 321 321 321 321 323 325 324 323 319 316 316 317 317 318 323 329 333 335 332 327 328 331 335 339 341 340 340 340 341 342 341 341 341 341 341 341 340 341 342 342 342 344 344 343 342 341 341 342
333 333 333 333 332 331 330 329 329 329 329 329 330 331 331 333 333 333 333 333 333 333 332 330 330 331 331 330 329 328 328 328 327 327 327 328 326 323 322 321 320 319 321 322 322 321 317 315 316 317 319 322 325 328 330 328 327 329 329 331 336 337 335 335 336 337 338 337 337 338 338 338 338 338 339 340 340 341 342 341 339 339 338 337 338
331 331 330 330 330 329 329 328 327 327 326 326 327 327 328 330 331 332 332 332 332 332 332 331 331 330 330 330 329 328 328 329 328 327 327 328 328 326 324 324 323 322 320 319 320 324 323 320 319 319 321 323 324 327 328 327 326 328 327 327 331 332 330 330 332 332 333 333 333 334 334 334 335 336 336 337 337 338 337 335 335 335 335 335 336
330 329 328 328 328 328 328 328 327 327 327 327 327 326 327 327 328 329 329 329 330 330 331 330 330 329 329 329 329 328 327 327 326 324 322 322 324 323 321 321 321 321 319 316 319 325 327 326 324 323 323 323 324 326 327 325 325 326 325 324 326 327 326 327 328 327 327 328 329 330 330 331 332 332 333 333 334 333 332 331 332 333 333 334 335
328 328 327 326 326 326 327 327 326 326 328 327 326 326 326 327 327 326 326 327 328 329 329 329 328 328 328 327 328 328 327 324 321 319 317 317 317 317 316 315 315 316 316 318 322 326 328 328 325 323 323 323 322 322 323 323 323 324 324 323 323 324 323 324 325 323 324 326 326 327 327 328 329 330 330 330 330 329 328 329 330 331 331 332 331
327 327 327 326 326 325 325 325 325 324 325 325 324 323 323 323 323 323 323 323 325 326 326 326 325 325 325 324 325 325 324 321 318 317 316 315 314 314 314 314 313 314 316 320 325 327 326 326 324 323 323 323 323 322 323 323 323 323 323 323 323 322 323 323 322 322 323 324 324 324 325 326 327 327 327 327 327 326 326 327 327 328 329 328 328
327 327 327 326 326 325 324 324 325 324 324 324 324 322 321 320 320 319 320 320 320 321 322 322 321 322 321 321 321 320 319 318 317 315 315 314 314 314 314 314 315 317 319 322 326 327 325 324 324 323 322 323 323 322 322 323 323 323 323 323 323 323 323 323 321 321 323 323 322 323 324 325 324 324 324 324 325 325 325 325 325 325 326 326 326
326 326 327 327 327 326 326 325 325 325 325 324 324 323 322 321 319 318 317 317 317 318 318 319 319 320 319 319 318 317 316 316 315 315 315 314 314 313 314 315 316 318 320 322 325 325 324 323 324 323 322 323 323 322 322 322 323 323 324 324 323 323 323 322 321 322 323 322 321 322 323 323 322 322 322 322 323 323 324 324 324 324 324 324 324
325 325 326 327 326 326 326 326 326 325 326 325 324 323 323 322 321 319 317 316 316 316 316 316 317 317 318 318 317 316 315 315 315 315 315 314 313 313 315 316 316 317 319 322 323 323 322 322 323 322 322 322 322 321 321 321 321 321 322 322 322 322 322 321 321 322 321 320 320 321 322 321 321 321 321 321 321 322 322 323 323 323 323 322 322
326 326 326 326 326 326 326 326 326 325 325 325 324 324 323 322 322 321 319 318 317 317 316 315 315 315 315 315 315 315 314 314 314 314 314 314 312 313 316 318 318 319 320 320 321 321 320 321 321 321 320 320 320 320 320 320 320 320 320 320 320 320 320 320 320 320 319 318 319 320 320 319 319 320 320 320 320 321 321 321 321 321 321 321 321
325 325 325 325 326 326 325 325 324 324 324 323 323 323 322 322 322 321 320 321 322 320 318 316 315 314 313 313 313 312 312 312 311 312 313 312 311 312 317 320 320 321 321 320 319 319 318 319 319 319 319 319 319 319 319 318 318 319 319 318 319 318 318 319 318 317 317 318 319 319 318 318 319 319 319 319 319 319 319 319 319 320 319 319 318
323 323 323 323 324 324 323 323 323 323 322 323 322 321 321 321 321 320 320 321 321 320 319 318 316 315 313 313 312 311 310 310 310 311 311 311 311 313 317 320 319 319 319 319 318 317 317 317 317 317 317 317 317 317 317 317 317 317 317 317 317 317 317 317 316 315 316 317 318 318 318 317 317 317 317 317 317 317 317 317 317 317 317 316 316
321 321 321 322 322 322 322 322 321 320 320 321 320 320 320 319 319 319 319 319 318 318 319 319 318 317 316 315 313 312 311 310 311 313 313 313 314 316 318 318 318 318 318 317 316 315 315 315 315 315 315 315 315 315 315 315 315 315 315 315 315 315 315 315 314 315 316 316 316 317 316 316 315 315 315 315 315 315 315 315 315 314 314 314 314
319 319 319 320 321 321 320 320 319 318 318 318 318 318 318 318 318 318 317 317 318 318 318 317 317 318 318 316 314 313 312 311 312 314 315 315 316 317 317 317 317 317 317 316 315 314 314 314 314 314 313 313 313 314 314 313 313 314 314 313 314 314 314 314 314 314 315 315 315 315 314 314 313 313 313 313 313 313 313 313 312 312 312 313 313
317 316 316 318 318 318 318 317 317 316 316 316 316 317 317 317 316 316 317 317 316 316 317 317 316 316 317 315 313 312 312 314 315 316 316 316 316 316 316 315 315 315 316 315 314 314 313 313 313 313 313 312 312 312 312 312 312 312 312 312 312 313 313 313 313 313 313 313 313 313 312 312 311 311 311 311 311 311 311 311 311 311 311 312 313
314 314 315 316 316 316 315 315 315 314 315 315 315 315 316 316 315 315 316 316 316 316 316 317 316 315 314 313 311 309 309 313 315 316 316 315 315 315 314 314 314 314 314 313 313 312 312 311 311 311 311 311 311 311 311 311 311 311 311 311 311 311 311 311 311 311 311 311 311 311 311 311 310 309 309 309 309 309 309 309 309 310 310 310 310
313 313 313 314 314 313 313 313 314 314 314 314 314 314 315 314 314 314 315 315 315 315 315 315 315 313 311 310 309 306 305 309 313 314 314 314 313 313 313 312 312 312 312 311 311 311 310 310 310 309 309 310 310 309 310 310 309 309 309 309 310 310 310 309 309 309 309 310 310 309 309 309 308 307 307 307 307 308 308 308 308 308 308 309 309
312 311 312 312 312 312 312 313 313 313 313 313 313 313 314 313 313 313 314 314 314 314 313 313 313 312 310 308 307 304 303 307 311 312 312 312 312 311 311 311 311 311 310 310 309 309 308 308 308 308 308 308 308 308 308 308 308 308 308 308 308 308 308 308 308 308 308 308 308 307 306 305 305 305 305 305 306 307 307 307 307 307 307 307 308
312 311 311 311 311 311 312 312 312 312 313 312 312 313 313 312 312 312 313 313 313 313 313 313 312 311 310 308 305 304 305 308 310 311 310 311 310 310 310 310 309 309 309 308 308 307 307 307 306 306 306 306 306 306 306 306 306 306 306 306 306 306 306 306 306 305 305 305 305 304 303 303 302 302 303 303 304 305 305 306 306 306 306 306 306
310 311 310 310 310 311 312 312 312 312 312 312 312 312 311 311 311 312 312 312 311 311 312 312 312 311 310 308 307 307 308 309 310 309 309 309 309 309 308 308 308 307 307 307 307 306 306 305 305 304 304 304 304 304 305 305 305 305 305 305 305 305 304 303 302 302 302 302 302 302 301 301 301 300 301 301 302 303 304 304 305 305 305 305 305
309 310 310 310 311 311 311 311 311 311 311 311 311 311 310 310 311 311 311 311 311 310 310 310 310 310 309 309 309 308 309 309 308 308 308 307 307 307 307 307 306 306 306 305 305 305 304 304 303 303 303 303 303 303 303 303 303 303 303 304 303 302 301 300 300 300 300 300 300 300 299 299 299 299 299 300 301 302 303 304 304 304 304 303 303
309 310 310 310 311 311 311 311 311 311 310 310 311 310 310 310 311 311 310 310 310 309 309 309 309 307 307 307 307 307 307 307 307 307 306 306 305 305 305 305 305 305 304 304 303 303 303 302 302 301 301 301 301 301 301 301 301 301 302 302 301 300 299 298 298 298 298 298 298 298 298 298 298 298 298 299 300 301 302 302 303 303 303 303 302
309 310 309 310 310 311 310 311 310 310 310 310 311 310 310 310 310 310 309 308 307 308 308 308 307 307 307 307 307 306 306 305 305 305 304 304 304 304 304 303 303 303 303 302 302 301 301 301 300 300 300 300 300 300 300 300 300 300 300 300 299 298 298 297 297 297 297 296 296 296 296 297 297 297 298 298 299 300 301 301 302 303 304 303 302
309 309 310 310 310 310 310 310 310 310 310 310 310 310 309 309 308 308 307 306 305 306 307 307 307 307 307 306 305 305 304 304 304 304 303 303 303 302 302 302 301 301 301 301 300 300 300 299 299 299 299 299 299 299 299 298 298 298 299 298 298 297 297 297 296 295 295 294 294 295 295 295 296 296 297 298 298 299 300 300 301 302 302 302 302
308 309 309 309 309 309 309 308 308 308 309 308 308 308 308 307 307 307 307 306 305 305 306 306 306 306 305 304 304 304 303 303 303 302 302 302 301 301 301 301 300 299 299 299 299 299 299 298 298 298 298 298 298 298 297 297 297 297 297 297 296 296 296 295 294 293 293 293 293 293 294 294 295 296 296 297 298 299 299 300 300 301 301 301 302
308 309 309 308 308 308 307 307 307 307 307 307 307 306 306 306 306 306 306 306 305 305 305 305 305 304 304 303 303 303 302 302 302 301 301 301 300 300 300 299 299 299 298 298 298 298 298 298 298 297 297 297 297 297 297 297 297 297 296 296 296 295 295 294 293 293 293 293 293 293 293 294 295 295 296 297 298 298 299 299 300 300 300 300 301
308 308 307 307 307 307 306 306 306 306 306 306 306 306 305 305 306 305 305 305 305 305 305 304 304 303 303 302 302 301 301 301 300 300 300 300 300 299 299 299 298 298 298 298 297 297 297 297 297 297 297 297 297 296 296 296 296 296 296 295 295 294 294 293 293 293 292 292 292 292 293 294 294 295 296 297 297 298 299 299 299 299 300 300 300
Wind_Speed
19 18 17 16 16 16 16 16 14 13 13 13 12 11 11 10 10 10 10 9 9 9 9 8 8 9 9 9 9 8 8 8 8 8 8 8 8 7 5 5 7 7 6 7 7 5 5 6 7 7 7 7 7 7 8 7 7 7 7 7 7 7 6 6 7 9 10 10 10 11 11 12 12 11 12 13 13 12 12 12 13 15 15 14 15
18 18 17 17 17 17 16 16 16 15 15 14 14 13 12 12 11 11 11 10 9 10 10 10 9 9 9 8 8 7 7 8 8 8 8 8 8 8 7 7 7 7 7 7 7 7 7 7 8 8 8 8 8 8 8 8 8 8 7 7 7 6 6 6 7 9 10 10 10 11 11 11 11 11 11 12 12 11 12 12 13 14 14 14 15
18 18 17 17 17 17 16 16 16 16 16 15 15 15 14 14 13 13 12 11 11 10 10 10 10 9 9 8 8 7 7 8 8 8 7 7 8 8 8 7 8 8 8 8 8 8 8 8 9 9 9 8 8 8 8 8 8 7 7 7 7 7 7 7 8 9 10 11 10 12 11 11 12 12 11 11 12 12 12 12 13 14 14 13 14
19 18 17 17 17 17 17 17 17 17 16 16 16 16 15 14 14 14 13 12 12 11 10 10 10 10 9 9 9 8 8 8 9 9 8 8 8 8 8 7 8 8 8 8 8 8 8 8 9 9 9 8 8 9 9 8 7 7 7 7 7 8 8 8 9 9 10 11 11 12 12 12 12 12 11 11 12 11 12 13 13 14 14 14 14
18 18 17 17 18 18 18 18 18 18 17 17 16 16 15 14 15 14 14 13 12 12 12 10 10 11 10 10 10 10 9 9 9 9 10 9 9 9 9 9 9 9 9 9 9 9 9 9 9 8 9 8 9 9 8 7 7 7 8 7 7 7 8 8 9 10 11 12 12 12 12 13 13 11 11 12 12 12 12 12 12 13 14 13 14
17 18 18 18 17 17 18 17 18 18 18 17 17 16 15 14 15 14 14 13 12 12 12 11 11 11 11 11 11 11 10 10 10 10 11 11 10 10 10 10 10 10 10 10 10 10 10 10 10 9 9 9 9 8 7 7 7 8 8 8 8 8 9 9 10 10 11 12 13 13 13 12 12 11 11 11 13 13 12 12 12 12 13 13 15
19 19 18 18 17 17 18 17 17 18 17 17 17 16 16 16 15 14 14 13 12 11 12 12 12 11 11 11 11 11 11 11 11 12 12 11 10 10 10 11 10 10 10 10 10 11 11 11 11 11 10 10 9 9 8 7 8 8 8 8 8 9 9 10 10 11 11 12 13 13 12 11 12 12 11 11 12 12 12 13 13 12 13 14 15
18 18 18 18 18 18 18 17 17 16 16 17 16 15 15 16 15 15 15 14 13 13 12 12 12 12 12 12 11 11 12 11 12 13 12 11 10 10 10 11 11 10 10 10 10 11 11 11 11 11 11 10 10 9 8 7 7 7 8 8 8 9 10 10 11 11 11 12 12 13 12 11 12 12 12 11 11 12 13 14 14 14 14 15 15
17 17 16 17 17 18 18 17 17 16 15 16 16 15 14 13 14 14 14 14 13 13 13 12 12 12 12 12 12 12 12 12 12 12 12 10 9 10 10 11 13 11 10 10 11 11 11 11 11 11 11 11 11 11 9 8 8 8 8 8 8 9 10 11 11 11 11 12 13 13 13 12 12 13 12 11 12 14 14 14 14 15 16 17 17
15 15 16 16 16 17 17 17 17 16 16 15 15 15 14 13 13 13 13 13 13 12 12 13 13 12 12 12 13 13 11 9 11 13 13 11 9 9 9 11 14 13 11 10 11 12 12 12 11 11 10 10 12 13 13 12 12 12 11 11 10 10 10 11 12 12 12 13 13 13 13 13 13 14 14 14 15 16 14 13 15 16 17 18 18
14 13 14 14 15 15 15 16 16 17 17 16 15 15 15 14 14 13 13 14 14 13 12 13 13 13 12 12 13 12 10 8 10 13 14 13 11 9 9 11 13 14 12 11 12 12 12 12 12 11 11 11 12 13 14 13 13 14 14 14 14 14 13 13 12 12 13 13 14 14 14 15 15 15 16 17 16 15 15 15 15 16 16 16 17
14 13 12 13 14 14 13 13 14 14 14 15 16 14 12 12 11 12 13 14 14 14 14 13 13 13 13 13 12 9 9 10 11 13 15 15 13 11 11 12 13 14 14 13 13 13 13 12 12 11 10 11 12 13 13 13 13 14 14 15 16 16 16 16 16 15 14 13 14 15 15 16 16 15 16 17 16 16 16 16 15 16 16 16 17
14 13 13 12 12 13 13 13 13 13 12 13 14 13 11 10 10 11 12 12 13 13 14 13 13 13 13 13 9 6 8 10 11 12 14 14 14 14 14 14 14 14 14 13 12 13 13 12 12 12 10 9 9 11 13 13 13 14 14 13 15 16 17 17 18 17 16 15 15 16 15 16 16 16 17 17 17 18 18 17 17 17 18 19 20
15 14 14 14 12 12 14 14 14 14 13 12 11 10 9 10 10 10 11 11 12 12 13 13 13 13 13 12 7 6 8 10 9 10 11 11 14 15 14 14 15 15 15 14 14 14 13 12 12 12 10 7 6 8 10 9 9 10 12 13 14 15 15 16 17 18 19 18 18 17 17 17 18 18 18 17 17 19 19 20 21 21 23 23 24
14 13 13 13 11 11 12 13 13 12 11 10 8 9 11 12 11 10 10 10 11 12 13 14 13 12 13 12 7 4 6 8 7 9 10 10 13 13 12 13 14 15 15 14 12 11 11 11 11 9 7 6 6 6 7 7 8 9 11 13 15 16 16 17 17 18 19 19 19 18 17 18 18 18 18 19 19 20 22 23 23 24 25 24 24
9 8 9 9 9 10 11 11 10 10 10 9 9 11 12 13 14 13 13 12 12 12 11 12 11 10 10 11 10 5 3 6 6 7 8 8 9 9 9 11 12 14 13 10 7 7 8 8 7 6 6 6 6 7 8 10 11 11 12 13 15 15 16 15 15 16 17 17 18 18 18 18 19 20 21 21 20 21 22 21 19 21 22 20 20
6 5 7 8 10 13 16 15 13 14 14 12 12 12 11 12 13 14 15 14 13 13 10 6 6 6 4 9 11 6 3 3 3 5 6 7 7 6 7 8 9 10 9 7 6 6 6 4 3 5 6 7 7 7 9 10 10 10 11 13 14 14 14 14 14 15 15 15 15 16 16 17 18 21 22 21 19 19 19 18 16 16 18 17 15
7 6 7 8 9 12 15 15 14 15 15 13 13 12 11 11 11 11 12 11 9 10 9 5 9 10 11 13 11 8 6 2 1 3 5 6 7 7 7 8 8 7 6 6 5 3 3 3 3 4 7 8 9 9 10 11 10 10 11 13 14 13 13 13 13 14 14 14 14 15 16 17 19 20 20 19 17 17 18 20 18 17 17 16 16
8 9 8 8 9 10 12 13 13 13 13 12 11 11 10 11 10 9 10 10 7 7 9 12 15 15 15 14 13 11 10 7 5 3 1 3 5 4 4 6 6 4 3 4 4 3 3 5 7 8 8 10 11 12 13 13 11 10 10 12 13 12 12 12 13 14 16 16 16 18 19 19 19 18 17 16 17 16 15 16 16 15 16 17 17
12 12 11 11 11 11 12 13 13 13 14 13 12 10 10 9 8 9 11 11 12 15 16 17 16 15 14 12 12 12 11 10 9 7 5 2 1 1 2 3 3 2 5 5 3 2 2 6 10 12 12 12 12 12 12 12 12 10 9 10 11 11 14 16 15 16 17 17 17 17 18 18 17 15 14 15 16 15 13 13 13 12 15 18 17
14 14 13 13 14 14 15 15 15 15 16 16 14 12 11 11 11 12 13 13 15 19 20 19 18 16 14 13 13 13 12 11 10 9 8 6 4 3 4 5 4 3 5 6 6 5 5 7 10 12 12 12 11 10 10 10 10 8 7 8 10 11 14 15 15 15 15 14 14 14 14 14 13 12 13 14 14 14 13 15 15 14 16 19 19
14 15 15 15 14 16 18 18 17 17 17 16 14 13 12 12 13 14 14 15 16 18 18 19 19 19 18 16 16 15 14 12 11 11 10 10 9 7 6 7 7 6 7 9 9 8 4 5 9 10 10 11 11 10 10 9 9 8 7 8 8 9 11 12 11 12 12 12 13 13 12 12 12 12 13 13 13 15 16 16 16 15 16 19 20
15 16 17 16 15 15 17 18 17 17 16 15 15 14 13 12 13 13 13 14 16 16 16 16 18 19 18 17 17 16 15 14 14 14 13 13 12 10 9 7 6 6 7 9 9 6 1 5 8 8 8 10 9 8 9 9 8 9 10 8 7 7 9 10 9 10 10 11 11 12 12 12 12 12 13 14 15 17 17 17 16 14 16 18 19
16 16 15 15 14 15 16 16 16 16 15 15 15 14 13 13 12 12 11 12 13 14 13 12 13 14 14 13 14 14 14 13 13 13 13 13 12 11 11 9 8 8 8 8 7 6 3 3 5 6 6 6 6 6 8 9 9 9 9 7 5 6 7 8 8 9 9 9 9 10 11 11 12 12 14 15 17 17 17 16 15 15 16 17 16
14 13 13 13 13 14 15 14 14 14 14 14 14 13 12 12 11 11 11 11 10 11 11 11 11 11 11 11 11 11 11 11 11 11 12 12 11 10 10 9 8 8 8 8 6 6 5 4 4 4 4 4 5 5 6 8 10 10 10 9 7 6 6 7 8 8 8 8 9 9 10 11 12 13 14 15 16 16 15 15 15 16 17 16 16
13 12 12 12 12 13 13 13 13 13 13 13 13 12 11 10 10 9 10 10 9 8 8 9 10 10 9 8 8 9 9 8 8 9 9 8 9 9 10 9 9 9 8 8 7 6 6 5 4 4 4 4 4 4 4 6 9 10 10 10 8 6 7 7 8 7 8 8 9 10 11 11 13 14 13 14 14 14 14 16 17 17 17 17 18
11 11 12 12 11 11 11 11 11 11 10 11 11 10 8 8 9 10 9 7 6 5 7 9 10 9 8 7 7 7 6 6 5 5 5 5 6 9 10 10 10 9 9 8 5 5 7 7 6 6 6 5 5 3 3 6 8 8 8 8 7 6 7 7 7 7 8 9 10 10 11 12 13 13 13 13 13 13 15 16 17 17 17 17 17
8 9 10 9 9 10 9 10 11 10 9 10 10 9 8 8 8 9 9 7 5 3 4 5 6 6 6 6 6 6 6 6 5 3 3 4 5 7 9 9 9 9 9 7 4 4 6 7 6 6 6 5 5 4 3 5 7 6 7 8 6 6 7 7 7 8 9 9 10 11 11 12 12 12 13 13 12 14 15 16 15 16 16 16 15
7 7 7 7 8 9 9 9 9 9 10 12 14 13 11 10 9 10 10 8 6 5 5 6 7 7 8 7 4 5 9 9 5 2 4 5 5 6 8 9 9 8 6 5 5 5 5 5 4 4 5 4 4 5 5 6 7 6 7 7 7 7 8 7 8 9 10 9 10 11 11 12 12 12 12 12 12 13 14 15 15 15 16 15 15
7 7 7 6 7 8 8 7 7 8 9 10 13 15 14 12 11 12 11 8 6 6 7 8 8 8 9 9 7 7 10 9 4 2 4 4 6 8 9 10 10 7 5 4 4 4 4 4 3 5 5 5 5 6 6 7 7 7 8 8 7 8 8 8 9 11 10 9 10 10 10 11 11 11 12 13 13 14 14 14 15 15 15 15 15
7 7 7 6 5 5 6 7 7 8 9 9 10 12 13 13 12 11 10 8 7 6 6 6 5 4 6 7 7 7 7 6 3 3 3 4 6 8 9 10 10 7 6 6 6 4 3 3 4 5 6 5 6 7 7 7 7 8 8 8 8 8 8 10 12 12 11 10 11 11 10 11 11 12 13 13 14 14 14 14 14 14 14 14 15
7 7 6 5 4 4 6 7 7 8 9 8 8 8 9 10 11 10 9 9 8 7 6 6 5 5 4 4 4 4 4 4 3 3 2 3 6 6 6 9 9 8 7 7 6 5 5 5 5 5 6 6 7 7 8 8 8 9 9 9 9 9 9 11 13 12 11 11 12 12 11 11 12 13 13 13 14 14 14 14 14 14 14 14 14
5 5 6 6 7 6 6 6 7 8 9 9 8 7 7 7 8 8 8 7 7 7 6 5 4 4 4 4 4 4 4 3 2 1 1 3 5 4 3 4 7 8 8 7 6 5 6 6 6 6 7 7 7 8 8 9 9 9 9 9 9 10 10 12 12 10 11 12 12 11 11 12 13 13 13 13 14 14 14 14 14 14 14 15 15
2 2 4 7 8 7 6 7 7 7 7 7 7 7 6 6 6 7 6 5 5 5 5 5 4 3 2 2 2 2 2 1 0 1 2 4 4 3 3 3 3 5 7 6 6 6 6 6 6 7 7 7 8 8 8 9 9 9 9 9 9 10 11 11 10 10 11 12 12 11 12 13 13 14 14 14 14 14 14 15 15 15 15 16 16
2 3 3 4 5 6 6 6 6 6 6 5 5 5 4 4 5 6 5 6 6 6 6 6 5 4 2 1 1 1 1 2 3 2 4 5 3 3 5 7 5 2 3 4 5 6 7 6 6 7 7 7 7 8 8 9 9 9 9 10 10 10 11 10 10 11 13 12 11 11 12 13 13 13 14 14 15 15 15 15 15 15 16 17 18
3 4 5 5 4 5 6 5 4 5 5 5 6 6 4 5 6 6 5 6 5 5 6 7 4 2 2 3 3 3 2 2 1 2 3 4 3 2 5 7 5 4 3 4 5 6 7 7 7 7 7 8 8 8 9 9 9 9 10 10 11 11 11 11 12 12 12 12 12 12 12 12 13 14 14 14 14 15 15 16 16 16 17 18 19
5 5 6 8 7 6 6 5 3 2 2 4 5 5 6 6 7 6 5 6 6 5 5 6 5 4 4 4 4 5 4 3 3 5 6 5 4 2 4 4 3 3 3 3 4 5 5 6 7 7 7 8 9 9 9 9 10 10 10 10 11 11 11 11 12 12 12 12 12 12 12 13 13 14 15 15 16 16 16 16 17 17 18 19 19
4 2 2 4 6 6 6 4 2 2 4 5 5 5 7 7 6 6 6 6 5 5 4 4 4 5 6 4 3 3 2 2 3 3 2 1 1 2 3 3 3 3 3 4 4 5 5 5 6 7 7 8 9 9 10 10 10 10 11 11 11 11 11 11 11 11 11 12 12 12 13 13 14 15 15 16 17 17 17 17 18 19 19 19 18
6 4 3 3 4 4 6 5 5 7 10 9 7 6 7 7 6 6 6 6 5 4 4 4 3 3 3 3 3 3 4 5 5 5 4 2 0 1 2 3 3 4 4 5 5 5 6 6 6 7 8 8 9 9 10 10 11 11 11 12 12 12 12 12 12 12 12 13 13 13 13 13 14 15 15 16 16 17 18 19 19 19 19 19 18
7 7 7 7 5 4 7 8 7 8 10 10 8 8 8 7 6 6 5 5 5 4 3 3 2 2 3 3 2 6 8 7 3 1 0 1 2 2 2 3 3 4 4 4 5 5 6 6 7 7 8 8 9 9 10 10 11 11 11 12 12 12 12 12 13 13 14 14 14 14 14 14 14 15 15 16 16 17 18 19 19 19 19 19 20
7 6 7 9 8 7 8 9 8 8 9 9 8 8 8 7 6 5 4 4 4 4 3 2 1 3 3 2 4 9 9 7 5 3 2 2 2 3 3 3 4 4 4 5 5 5 6 6 7 7 8 8 9 10 10 10 11 11 12 12 13 13 13 13 14 14 15 15 16 16 16 16 17 17 17 18 18 18 18 18 18 19 19 20 20
6 5 7 10 10 8 8 8 8 8 9 9 8 8 8 7 6 5 4 3 3 3 3 3 2 3 2 4 9 8 4 4 4 4 3 3 3 3 3 3 3 4 4 5 6 6 7 7 8 8 9 9 10 11 12 12 12 12 13 13 13 14 15 15 15 15 15 15 15 16 16 17 17 17 18 19 19 19 19 19 18 19 20 20 20
6 6 7 10 11 10 8 8 8 8 8 8 8 8 8 7 6 5 4 3 3 2 3 3 3 4 2 3 7 5 0 2 3 4 3 3 4 4 4 4 4 5 6 7 7 7 8 8 9 10 10 11 11 12 12 12 13 13 13 13 14 15 15 14 14 14 14 14 15 15 16 17 17 18 19 19 20 20 21 21 20 20 21 21 21
7 7 8 8 10 9 8 8 9 9 8 7 7 7 7 6 5 5 4 4 3 3 3 3 2 3 3 1 2 2 0 2 2 3 3 4 4 4 5 5 6 7 7 7 7 8 8 9 10 11 11 11 12 12 12 12 13 13 13 14 15 14 12 12 13 13 14 15 16 16 17 18 19 19 19 20 21 21 21 21 21 22 23 23 22
8 8 8 8 8 8 8 8 8 8 7 7 6 6 6 6 6 5 5 5 4 4 3 2 1 1 1 1 0 0 1 2 2 2 3 4 4 5 5 6 7 8 7 7 8 9 9 10 11 12 12 12 12 12 12 12 12 12 12 13 12 10 10 12 14 14 15 16 16 16 17 19 20 21 21 21 22 22 22 22 22 23 24 23 22
8 8 8 8 8 8 8 8 7 7 8 8 7 7 7 6 6 5 4 3 3 3 3 2 2 1 1 1 1 0 1 1 2 2 2 3 4 5 5 6 7 7 7 8 9 9 10 11 11 12 12 12 12 12 12 12 12 12 11 11 10 9 11 15 16 15 15 15 15 17 19 22 23 23 22 22 22 21 22 22 23 24 24 24 24
8 8 8 8 8 7 7 7 7 7 8 7 7 7 7 6 5 5 3 2 1 2 3 2 2 2 2 1 0 0 1 2 2 2 3 3 4 5 6 6 7 7 8 8 9 9 10 11 11 12 12 12 12 12 12 12 12 11 10 10 11 12 15 17 16 15 15 17 17 18 20 21 22 21 21 21 22 22 22 22 23 24 25 25 24
8 9 8 7 8 8 7 7 7 7 7 7 6 6 5 5 5 5 4 3 3 3 3 3 2 2 2 1 0 1 1 2 2 2 3 3 4 5 6 6 7 7 8 8 9 9 10 10 10 11 11 11 11 12 11 11 11 10 9 11 13 15 16 17 17 17 18 19 17 17 17 18 19 20 21 22 22 22 22 22 22 23 23 24 24
10 9 8 8 8 8 7 8 7 7 7 6 6 6 5 5 5 5 4 5 5 4 3 3 2 2 1 1 0 0 1 1 2 3 3 4 5 5 6 6 7 7 8 8 8 9 9 10 10 10 10 10 11 11 10 11 11 9 8 11 14 16 18 19 19 19 19 18 16 15 17 18 19 20 21 22 22 22 22 22 22 23 23 23 23
10 10 9 9 9 8 8 8 8 7 7 6 6 6 6 5 5 5 4 4 4 4 3 2 2 2 2 1 1 0 1 1 2 3 4 5 5 5 6 7 7 7 8 8 9 9 9 10 10 10 10 10 10 10 10 10 9 8 9 12 16 18 19 20 19 19 19 20 19 17 17 19 19 20 20 20 21 21 21 22 22 22 22 23 24
11 10 10 10 10 9 8 8 7 6 7 6 6 6 6 5 5 5 4 3 4 3 3 2 2 2 1 1 1 1 1 2 3 4 5 5 5 6 7 7 7 8 8 9 9 9 9 9 10 10 10 10 10 10 10 10 10 10 11 14 17 18 18 18 18 19 21 23 23 20 18 18 19 20 19 20 20 21 22 23 23 23 23 23 23
Wind_Direction
182 186 188 188 189 189 191 191 191 193 192 193 196 193 196 199 196 193 191 193 194 193 200 202 198 201 204 205 207 205 202 205 208 207 212 220 226 235 232 219 230 241 246 253 258 257 253 253 257 259 260 263 268 270 271 265 257 253 254 256 258 259 259 268 281 287 291 293 294 297 300 302 300 298 298 298 299 303 305 305 306 305 306 312 318
184 187 188 189 190 191 193 192 193 197 195 195 196 194 195 197 198 197 194 194 198 196 197 200 199 201 204 206 209 207 201 205 214 214 215 220 224 229 229 227 236 244 246 248 251 252 252 250 253 254 252 252 255 261 265 268 269 266 263 264 265 266 266 268 274 281 287 290 291 295 298 298 297 298 299 298 300 303 305 307 309 310 313 317 319
185 188 190 191 192 193 194 194 196 200 199 198 199 197 195 194 196 199 198 194 195 198 199 197 195 198 203 202 203 206 203 208 219 221 219 223 227 231 232 229 231 238 243 245 246 249 249 250 253 252 251 249 249 257 264 267 274 278 277 279 280 278 273 271 271 273 281 287 290 293 297 300 299 298 297 296 299 302 305 308 310 313 315 316 318
185 188 190 193 196 195 195 197 198 201 203 204 205 204 198 193 195 199 202 198 191 193 201 198 190 195 203 200 198 207 210 213 222 223 222 224 229 234 236 233 234 237 242 243 243 245 247 249 254 257 258 255 252 257 264 266 269 271 271 269 268 269 267 266 265 267 275 282 285 289 294 297 294 294 297 298 301 305 307 309 311 314 315 315 315
183 186 191 195 198 199 199 200 199 201 205 206 207 210 205 195 195 200 206 206 195 188 196 201 193 194 205 206 203 207 211 215 221 223 225 225 225 230 231 230 232 235 239 241 239 241 244 246 247 250 254 253 253 256 261 266 266 265 268 267 263 267 270 269 270 270 274 279 284 287 288 289 290 293 297 300 304 306 306 308 310 311 313 312 310
184 188 194 196 198 202 204 205 204 203 206 209 207 208 207 202 198 199 206 211 204 193 194 200 201 201 208 211 206 206 210 214 216 222 230 229 225 229 229 227 229 232 235 237 237 238 240 242 242 241 245 247 250 257 260 262 265 266 270 270 269 271 271 271 273 272 272 276 282 286 287 289 294 297 299 304 306 306 305 307 308 306 308 308 306
186 189 194 196 197 201 203 206 209 206 206 212 212 207 205 205 202 199 206 213 212 206 200 197 202 207 211 214 213 208 209 213 215 220 230 235 235 237 238 237 234 232 237 239 238 240 240 239 239 236 238 241 243 248 252 254 258 263 264 264 266 270 273 276 277 275 278 281 284 287 291 297 300 299 301 302 300 300 303 303 303 304 305 304 303
188 190 194 196 197 199 201 205 210 209 207 211 217 216 210 207 205 202 204 209 211 213 211 204 203 208 210 214 219 213 210 216 220 222 226 232 238 239 244 252 248 239 241 243 242 246 245 241 241 238 236 238 240 240 241 247 254 259 263 267 271 275 277 282 284 284 285 286 288 293 297 298 297 295 297 297 295 298 300 301 303 308 308 305 304
190 193 196 197 196 198 199 201 206 209 208 207 213 219 217 212 210 207 206 210 213 214 215 214 213 212 207 208 219 222 219 218 221 225 226 225 231 237 242 259 263 252 245 246 248 250 250 249 250 246 237 231 232 235 240 250 257 259 267 272 275 278 279 280 281 282 284 286 289 293 293 291 292 293 296 299 297 295 297 303 309 311 310 308 305
193 194 200 200 196 196 199 200 202 205 207 205 207 213 216 213 212 210 207 213 219 217 216 218 220 221 212 207 216 224 225 222 218 223 230 227 226 237 241 251 261 258 249 249 252 254 255 256 254 250 244 236 236 244 254 260 258 257 260 264 267 271 275 279 280 281 283 285 287 290 291 292 297 301 302 302 300 301 307 315 315 311 312 310 306
199 197 199 201 196 192 193 195 197 200 203 204 205 209 212 213 213 212 209 211 215 217 218 218 220 224 220 215 220 222 220 224 216 214 223 227 224 235 246 247 254 260 258 254 254 257 259 259 256 252 247 245 251 258 259 256 255 256 258 259 261 263 266 271 276 281 284 285 287 290 292 295 300 303 302 303 306 312 318 318 312 308 308 306 303
204 205 200 199 195 190 189 186 186 191 195 197 198 200 201 203 202 201 202 205 207 210 214 216 217 223 224 225 229 219 206 215 216 210 215 221 222 233 249 253 253 256 257 256 258 262 262 263 266 262 246 241 250 254 251 251 258 263 261 257 256 256 257 259 262 266 272 276 282 285 287 293 299 300 300 306 312 313 310 305 301 300 299 297 296
203 208 206 203 197 193 192 185 179 183 188 190 188 183 180 186 191 191 196 201 205 209 212 214 216 220 225 229 227 195 187 203 211 210 213 220 230 240 249 256 259 259 258 259 259 260 262 264 269 269 261 250 243 240 244 253 260 264 267 267 264 260 258 259 260 263 266 268 274 279 283 288 292 293 297 303 305 302 299 298 298 299 299 298 297
204 205 206 208 206 205 203 196 192 193 196 195 186 177 180 189 192 195 199 201 205 209 210 212 214 214 220 222 201 165 189 201 206 217 225 234 243 248 250 254 259 261 263 265 263 261 264 265 264 269 274 272 254 238 241 251 258 264 270 273 271 270 269 267 266 267 267 266 267 271 279 286 288 292 297 299 300 300 302 304 306 306 302 300 300
208 206 206 207 207 211 211 207 207 203 196 192 188 188 194 195 192 195 200 204 211 212 213 214 210 207 212 207 170 150 207 213 215 229 237 242 244 246 249 253 259 261 262 266 267 269 274 273 274 285 294 287 268 248 240 248 267 283 285 278 275 276 276 274 273 272 268 265 266 271 278 284 287 293 301 304 305 308 310 310 308 305 301 300 301
207 203 202 200 201 208 208 207 211 210 203 200 200 200 201 200 202 205 206 209 213 213 216 215 205 202 205 185 150 123 192 210 218 230 233 241 243 245 251 257 262 263 265 276 296 318 325 312 313 334 331 303 283 270 262 268 282 296 296 291 289 287 287 288 290 287 280 274 274 279 284 288 292 296 302 307 312 315 314 310 306 303 301 300 300
192 172 174 182 185 192 193 193 196 200 201 201 200 199 200 201 203 206 208 212 214 218 229 223 188 179 143 136 135 120 122 186 221 239 244 248 249 255 265 268 268 270 277 288 304 331 340 325 340 356 331 309 299 291 288 291 300 306 301 300 301 299 300 303 300 298 297 290 285 287 294 302 306 305 307 311 316 317 307 295 292 302 307 305 301
190 172 168 172 168 170 175 178 179 182 187 192 192 193 197 201 201 200 200 203 208 219 222 170 134 123 94 89 97 91 84 96 212 254 265 264 255 257 272 277 277 287 300 294 296 331 337 295 305 321 313 312 311 306 306 307 310 312 307 303 302 301 309 318 315 313 311 305 301 301 304 309 312 312 314 316 316 313 303 293 293 301 306 307 309
150 155 157 161 160 159 164 167 162 159 164 170 173 175 182 193 197 185 176 170 145 133 147 136 122 112 100 92 89 86 83 76 68 58 330 276 250 253 285 283 273 288 335 325 311 329 336 335 344 342 326 317 310 306 307 305 303 308 309 305 302 305 316 323 324 322 316 309 308 308 308 310 310 311 315 314 312 315 317 315 312 305 298 301 308
111 122 127 130 136 142 151 155 149 141 140 140 138 139 143 153 160 148 145 148 126 109 116 125 121 114 114 112 101 91 84 72 63 58 48 40 198 186 9 343 318 355 23 18 356 324 346 3 0 355 343 325 312 311 311 306 305 311 312 309 306 308 313 315 316 317 313 309 308 309 310 313 313 314 318 320 324 332 338 336 331 317 303 303 305
99 105 113 118 123 127 129 129 124 120 121 122 120 118 117 117 122 126 126 125 115 105 104 109 107 104 106 106 99 88 78 69 60 54 51 50 54 69 58 44 47 68 72 66 61 61 55 25 359 350 347 340 334 333 327 318 319 321 311 302 301 305 312 317 318 316 313 311 310 312 318 323 326 329 331 333 339 345 344 337 333 328 316 310 306
93 89 94 100 104 110 111 108 106 105 106 109 109 108 110 109 108 110 111 108 103 96 94 96 96 93 90 90 89 84 77 72 65 58 55 53 52 55 60 58 62 77 88 79 70 72 65 356 339 342 349 349 347 347 344 340 336 332 324 318 319 326 333 333 326 320 320 320 319 322 330 338 342 341 339 340 341 341 341 338 335 332 326 320 313
92 84 85 84 81 87 93 95 99 102 103 107 110 108 108 108 106 103 102 101 97 90 86 88 93 93 88 85 85 83 78 74 70 64 59 57 57 57 55 56 63 67 63 57 57 69 78 317 335 351 354 345 340 343 351 350 339 332 336 341 346 355 357 347 333 329 329 328 328 331 332 335 336 335 336 339 337 336 336 335 333 333 334 332 325
94 90 90 90 86 86 89 93 99 103 105 107 108 109 109 109 109 108 104 101 100 97 95 94 97 99 95 90 88 85 80 76 71 66 61 57 58 60 56 58 75 77 65 57 58 65 62 12 5 4 351 336 332 338 341 340 340 347 359 9 7 1 358 349 339 338 335 331 333 331 327 327 330 330 332 332 329 328 328 328 330 332 331 329 324
104 100 99 98 96 96 95 95 94 95 97 98 100 106 110 110 112 115 112 109 109 109 109 108 106 105 100 96 94 88 80 75 66 56 47 39 40 50 53 54 66 71 58 45 43 44 39 32 16 358 345 339 344 341 327 332 351 8 19 22 12 360 356 348 339 337 335 332 332 327 323 325 326 325 326 327 326 328 329 330 331 330 328 326 322
116 118 116 111 110 109 105 101 96 93 94 97 96 95 98 102 105 106 108 113 117 120 125 125 120 114 109 109 108 97 82 72 59 43 31 19 16 25 32 34 39 49 42 24 16 12 7 9 12 5 0 359 356 347 335 345 357 5 10 10 6 4 2 354 346 344 341 336 332 327 325 325 323 322 323 325 327 331 335 334 332 330 331 330 325
128 129 127 125 125 122 115 112 113 112 109 108 101 94 96 103 94 82 85 100 109 119 134 140 137 133 132 131 127 118 105 92 74 44 21 14 14 18 20 18 17 23 19 6 2 4 354 354 6 5 349 340 333 324 339 355 351 352 0 359 357 7 6 356 354 357 350 341 335 331 329 328 327 328 329 329 331 336 338 336 332 329 330 330 325
137 134 136 138 135 131 130 130 129 121 106 95 91 93 104 108 91 77 79 84 82 90 120 131 135 138 136 133 140 147 133 109 91 61 35 38 33 27 25 19 12 10 3 355 5 15 344 334 344 347 333 326 323 311 322 349 346 350 360 352 348 4 6 360 2 1 352 345 340 336 335 334 333 333 333 332 334 335 334 333 330 327 328 327 323
149 145 144 141 136 139 144 140 131 120 101 87 82 84 93 100 96 90 87 82 78 84 93 85 72 73 84 86 91 122 122 113 105 79 59 55 48 38 30 24 20 15 11 11 20 13 343 321 330 347 342 348 356 346 346 355 350 351 359 353 350 359 1 1 4 357 349 347 344 339 337 336 333 334 333 331 331 331 330 330 328 326 326 325 323
162 154 147 146 155 161 154 137 126 126 119 103 89 86 90 96 98 96 90 81 76 84 93 88 73 70 80 79 67 79 101 109 112 90 72 54 43 40 34 32 32 29 30 32 16 354 339 335 358 9 0 1 9 359 353 357 356 352 353 353 353 357 360 4 4 354 345 344 343 339 337 336 334 335 334 330 328 328 329 329 328 326 326 327 325
174 162 155 156 169 169 150 138 132 124 120 116 107 98 93 89 85 84 83 82 80 83 92 96 91 88 96 95 83 80 91 101 109 104 84 47 37 41 41 43 45 43 35 21 359 341 351 3 15 17 5 4 13 4 355 359 1 353 349 349 353 358 1 2 357 349 344 345 344 339 337 338 338 337 335 331 328 327 328 329 329 328 327 327 326
189 174 158 146 149 152 144 145 143 131 128 133 133 126 116 101 87 77 73 71 71 73 81 91 101 105 104 104 101 95 96 108 116 106 72 26 30 38 44 46 49 51 44 25 6 3 14 14 18 18 8 6 11 4 357 359 359 354 351 350 351 355 359 357 350 345 344 345 341 337 338 339 338 335 332 330 328 327 328 328 328 328 327 326 326
202 182 162 156 162 162 154 154 153 147 148 153 150 149 154 145 124 106 90 75 65 63 66 71 87 102 105 106 107 108 112 118 110 87 357 2 15 22 33 45 51 54 48 33 19 19 17 12 15 16 8 6 6 2 360 359 355 352 352 350 348 350 352 349 344 342 345 342 336 334 338 338 335 332 331 330 329 328 328 328 328 328 329 327 326
180 146 159 172 170 163 157 159 159 159 163 168 167 165 162 159 154 143 132 125 112 94 79 66 60 72 98 99 92 103 117 113 352 313 313 332 355 13 359 351 20 55 48 29 18 17 14 12 14 10 5 5 2 357 357 356 352 350 350 347 346 346 344 343 343 345 344 337 331 334 337 336 333 332 330 330 330 328 328 328 328 329 330 328 326
119 105 129 160 157 152 158 162 165 174 179 181 186 181 158 148 165 175 174 166 153 140 129 106 70 35 23 26 327 325 355 333 315 318 328 333 353 27 356 343 345 29 35 19 17 16 10 8 9 5 2 1 358 355 354 352 350 350 347 344 344 342 340 342 345 344 338 331 328 333 334 332 332 332 330 328 329 328 328 329 329 329 330 329 327
210 185 183 190 186 174 177 181 182 185 187 190 197 194 181 183 195 200 198 187 180 175 156 136 106 24 35 61 33 11 20 12 21 52 37 29 55 40 345 346 8 27 18 18 21 13 4 2 2 358 355 354 353 352 350 347 347 347 344 343 342 339 337 339 338 335 332 328 327 329 331 331 333 333 330 328 328 328 327 327 327 328 328 326 324
240 225 209 209 211 199 183 175 157 136 171 196 203 198 196 202 205 205 202 196 200 206 181 156 160 182 156 105 43 28 51 79 92 88 82 75 66 11 322 338 12 10 4 22 20 5 358 357 354 351 351 350 349 347 344 343 342 341 341 340 336 331 330 331 329 327 328 327 326 329 333 333 333 333 331 329 328 327 327 327 327 325 324 323 320
237 282 259 208 201 192 182 174 171 201 210 213 214 210 208 207 205 206 208 202 198 204 197 179 181 184 171 145 82 43 17 259 226 188 152 110 28 337 331 358 6 355 3 21 16 2 354 351 350 349 348 345 344 342 340 339 338 337 337 334 329 326 328 328 327 328 328 326 327 331 334 334 334 334 333 329 327 326 327 327 326 322 321 321 320
232 256 248 189 169 181 193 201 210 211 209 209 209 208 208 207 204 206 209 202 196 202 205 195 190 190 171 123 70 16 328 288 245 216 209 217 336 9 8 3 355 355 2 3 359 357 355 352 351 349 345 342 341 338 336 334 334 334 333 329 327 328 330 329 329 330 329 327 328 330 331 330 331 331 329 326 325 325 324 323 321 319 318 318 318
227 234 219 197 187 200 208 210 207 200 199 202 204 204 206 208 206 207 209 199 193 200 210 194 166 137 129 118 40 343 328 324 327 333 14 16 16 19 16 6 0 3 1 355 353 353 348 345 344 341 339 339 338 334 332 332 330 328 327 327 326 326 326 327 329 329 328 327 326 326 326 328 329 329 327 324 322 321 320 317 316 315 315 315 315
215 221 209 201 203 210 210 209 207 200 197 200 201 200 202 206 207 211 217 206 191 190 205 206 134 107 135 186 309 314 309 308 325 351 9 11 2 5 7 4 359 356 351 348 349 345 339 339 340 338 336 337 336 333 332 331 329 328 328 326 324 323 324 325 326 325 324 322 320 320 323 329 331 329 326 323 320 317 315 315 316 316 316 315 314
204 203 198 199 204 210 208 204 203 202 199 197 198 198 197 200 206 213 219 215 198 187 193 199 159 132 154 308 324 323 295 279 310 336 345 350 355 355 350 345 345 346 346 346 346 343 340 339 339 337 337 337 336 334 332 331 330 329 327 326 326 327 324 321 320 320 319 320 321 324 327 331 332 328 324 321 319 315 313 313 314 315 315 313 313
197 192 190 193 200 208 209 199 196 198 195 191 192 193 192 195 204 210 212 214 212 201 200 204 181 156 159 338 352 10 128 254 309 332 339 342 341 335 333 340 345 344 342 340 337 335 334 333 334 335 335 333 331 329 328 327 325 323 322 322 323 323 323 326 333 336 332 328 328 329 328 328 328 326 322 319 317 315 313 312 311 312 312 312 312
197 192 189 190 196 202 201 191 188 190 187 182 183 185 190 196 203 203 201 200 204 212 216 212 189 160 157 132 36 54 89 297 327 342 335 335 333 329 334 342 340 333 329 326 325 326 325 324 324 325 324 324 324 324 323 323 323 322 321 319 319 321 330 344 354 352 342 332 327 324 322 321 321 320 318 316 314 312 310 308 308 310 311 310 309
199 193 189 187 188 189 187 183 183 180 175 175 179 182 191 201 202 199 197 193 192 207 219 208 182 167 182 188 165 4 319 326 340 336 330 333 334 333 334 333 327 324 322 320 319 320 319 319 318 318 318 319 320 320 320 321 323 324 323 322 325 333 340 341 341 341 337 331 326 322 319 317 316 314 312 311 309 307 305 306 308 310 311 310 307
196 191 189 185 183 182 180 179 178 172 172 181 186 183 190 200 198 192 191 183 180 197 206 192 177 201 231 248 265 331 345 334 337 347 347 339 328 322 320 318 318 319 317 314 315 316 315 316 316 316 316 317 317 318 320 320 320 322 324 325 331 338 332 329 335 342 340 333 329 324 318 314 311 309 308 307 306 304 304 305 305 306 307 308 307
192 187 188 183 180 182 178 174 176 179 184 191 192 185 186 191 185 179 175 161 162 194 200 192 196 208 205 203 223 3 354 341 344 351 343 322 310 310 311 314 317 317 311 309 311 312 311 313 314 313 313 314 314 314 316 316 318 322 322 319 322 326 324 325 334 340 334 328 326 324 318 313 310 308 308 307 306 305 305 305 304 303 303 304 305
187 186 186 178 175 180 179 174 180 189 191 191 189 185 181 178 179 183 183 178 184 200 205 197 193 188 166 136 80 347 339 339 338 333 321 310 306 307 308 309 313 313 310 307 307 307 307 308 308 308 309 310 310 311 312 312 313 315 312 309 314 320 321 321 325 326 322 322 325 323 316 311 308 306 305 305 304 303 304 304 304 304 304 303 304
187 184 180 173 173 179 179 177 184 191 188 183 184 185 183 181 183 186 183 175 179 192 198 186 173 160 147 151 186 287 325 333 321 310 306 303 300 301 305 305 306 307 305 303 304 304 305 305 305 305 306 306 306 308 308 308 308 308 303 304 309 314 315 316 317 317 317 321 325 321 314 309 305 303 303 303 303 303 303 303 304 305 305 304 304
186 182 177 174 175 176 175 178 185 188 184 182 183 183 183 185 185 184 181 181 181 183 180 171 164 160 161 164 159 71 345 326 312 303 299 298 297 299 302 302 302 303 303 302 302 303 304 304 304 303 303 303 304 304 305 306 307 302 296 299 304 307 308 310 312 314 318 322 322 317 309 305 303 302 302 302 302 302 303 304 305 306 305 304 303
183 181 177 174 173 172 173 179 184 182 180 184 186 180 179 185 185 178 175 183 186 178 167 164 163 162 161 146 98 42 340 320 311 301 295 297 298 299 299 299 299 300 300 300 301 301 301 302 302 301 301 302 302 301 303 303 300 296 297 303 306 308 310 314 317 319 320 320 318 313 305 301 301 301 300 300 301 301 302 303 304 304 303 302 301